FW0956 Weather Reports


time (UTC)temp
F
wind
direction
speed
knots
gust
knots
rain 1hr
in
rain 24hr
in
rain mn
in
humidity
%
barometer
mb
20260504044641 41 258 0.0 0.0 0.00 0.00 0.00 64 1014.3
20260504043611 42 258 0.0 0.0 0.00 0.00 0.00 64 1014.2
20260504042618 42 258 0.0 0.9 0.00 0.00 0.00 63 1014.2
20260504041624 42 258 0.0 1.7 0.00 0.00 0.00 65 1014.2
20260504040621 42 232 0.0 0.0 0.00 0.00 0.00 64 1014.3
20260504035630 42 232 0.0 0.0 0.00 0.00 0.00 64 1014.1
20260504034606 42 232 0.0 0.0 0.00 0.00 0.00 64 1014.1
20260504033602 42 232 0.0 1.7 0.00 0.00 0.00 63 1014.1
20260504032628 42 232 0.0 1.7 0.00 0.00 0.00 64 1014.0
20260504031609 43 234 0.0 0.9 0.00 0.00 0.00 62 1014.0
20260504030609 43 234 0.0 0.9 0.00 0.00 0.00 62 1014.0
20260504025606 43 234 0.0 2.6 0.00 0.00 0.00 61 1014.1
20260504024611 43 234 0.0 1.7 0.00 0.00 0.00 61 1014.1
20260504023603 43 234 0.0 1.7 0.00 0.00 0.00 61 1014.1
20260504022615 43 234 0.0 1.7 0.00 0.00 0.00 61 1014.2
20260504021605 43 234 0.0 1.7 0.00 0.00 0.00 61 1014.2
20260504020603 44 234 0.0 0.9 0.00 0.00 0.00 60 1014.0
20260504015609 44 234 0.0 0.9 0.00 0.00 0.00 59 1013.8
20260504014646 44 234 0.0 0.0 0.00 0.00 0.00 59 1013.8
20260504013620 44 234 0.0 0.0 0.00 0.00 0.00 59 1013.8
20260504012618 45 234 0.0 0.0 0.00 0.00 0.00 56 1013.6
20260504011625 46 234 0.0 0.0 0.00 0.00 0.00 54 1013.6
20260504010629 47 234 0.0 0.0 0.00 0.00 0.00 51 1013.6
20260504004639 48 234 0.0 2.6 0.00 0.00 0.00 49 1013.5
20260504003638 49 230 0.0 0.9 0.00 0.00 0.00 48 1013.3
20260504002625 50 230 0.9 2.6 0.00 0.00 0.00 46 1013.2
20260504001609 51 236 1.7 6.1 0.00 0.00 0.00 45 1013.2
20260504000627 52 248 0.9 5.2 0.00 0.00 0.00 45 1013.2
20260503234613 53 240 3.5 10.4 0.00 0.00 0.00 41 1013.1
20260503233641 53 260 6.1 14.8 0.00 0.00 0.00 40 1013.1
20260503231601 54 258 2.6 13.9 0.00 0.00 0.00 40 1013.1
20260503230631 54 251 3.5 14.8 0.00 0.00 0.00 40 1013.0
20260503225632 54 219 5.2 16.5 0.00 0.00 0.00 40 1013.0
20260503224605 55 250 7.0 15.6 0.00 0.00 0.00 38 1013.0
20260503223625 54 257 1.7 14.8 0.00 0.00 0.00 38 1012.9
20260503221635 53 252 5.2 10.4 0.00 0.00 0.00 40 1013.1
20260503220638 54 250 2.6 11.3 0.00 0.00 0.00 39 1013.1
20260503215642 54 239 4.3 12.2 0.00 0.00 0.00 39 1013.2
20260503214627 54 255 5.2 12.2 0.00 0.00 0.00 38 1013.2
20260503213622 54 271 4.3 16.5 0.00 0.00 0.00 38 1013.1
20260503212635 54 268 5.2 10.4 0.00 0.00 0.00 39 1013.1
20260503211619 54 234 7.0 14.8 0.00 0.00 0.00 39 1013.1
20260503210612 54 254 7.0 13.9 0.00 0.00 0.00 37 1012.9
20260503205600 53 250 6.1 13.9 0.00 0.00 0.00 38 1013.1
20260503204611 53 272 4.3 10.4 0.00 0.00 0.00 40 1013.1
20260503201600 54 256 5.2 15.6 0.00 0.00 0.00 37 1013.3
20260503200626 53 236 6.1 15.6 0.00 0.00 0.00 37 1013.5
20260503194642 54 263 4.3 14.8 0.00 0.00 0.00 37 1013.4
20260503193640 53 236 6.1 14.8 0.00 0.00 0.00 40 1013.8
20260503192646 54 272 7.8 18.2 0.00 0.00 0.00 36 1014.0
20260503191605 53 302 4.3 12.2 0.00 0.00 0.00 37 1014.0
20260503190611 53 255 4.3 12.2 0.00 0.00 0.00 39 1014.2
20260503184607 51 283 2.6 21.7 0.00 0.00 0.00 40 1014.2
20260503182641 52 294 7.8 15.6 0.00 0.00 0.00 39 1014.4
20260503181646 52 254 7.8 13.9 0.00 0.00 0.00 42 1014.4
20260503180607 51 250 2.6 13.0 0.00 0.00 0.00 41 1014.6
20260503175607 51 305 6.1 13.9 0.00 0.00 0.00 41 1014.7
20260503174614 52 267 7.8 20.9 0.00 0.00 0.00 41 1014.7
20260503173620 50 270 6.1 13.9 0.00 0.00 0.00 41 1014.8
20260503172623 50 240 5.2 15.6 0.00 0.00 0.00 41 1014.9
20260503171612 50 294 9.6 19.1 0.00 0.00 0.00 39 1014.9
20260503170619 50 266 5.2 14.8 0.00 0.00 0.00 40 1014.9
20260503081622 35 247 1.7 6.1 0.00 0.00 0.00 70 1015.0
20260503080621 35 261 1.7 5.2 0.00 0.00 0.00 70 1014.9
20260503072641 35 292 4.3 7.0 0.00 0.00 0.00 69 1014.6
20260503071645 35 292 1.7 6.1 0.00 0.00 0.00 69 1014.6
20260503070626 35 315 1.7 3.5 0.00 0.00 0.00 69 1014.6
20260503054615 37 303 1.7 6.1 0.00 0.00 0.00 64 1014.8
20260503053612 37 226 0.9 4.3 0.00 0.00 0.00 64 1014.9
20260503052614 37 272 0.9 4.3 0.00 0.00 0.00 64 1014.9
20260503050645 38 264 0.9 4.3 0.00 0.01 0.00 63 1014.9